M I D A S
Marine Information and Data Acquisition System
Tripno 1915 of the Zeeleeuw from 2010-07-07 06:55:27 to 2010-07-07 13:12:15
Back to CruiseResearch ActivitiesStationsMapUnderway DataData graphs

EquipmentUnitsComments
TimeDGPSUTC
LatitudeDGPSDM.mWGS84
LongitudeDGPSDM.mWGS84
SpeedMeteo Stationm/sRelative wind speed
DirectionMeteo StationdegRelative wind direction
TemperatureMeteo Stationdeg CelciusAir temperature
PressureMeteo StationPaAtmospheric pressure
HumidityMeteo Station%Relative humidity
Missing or incorrect values are displayed as -999
Metereological data collected by the RV Zeeleeuw from 2010-07-07 06:49:23 to 2010-07-07 13:18:48
Time Latitude Longitude Speed Direction Temperature Pressure Humidity
2010-07-07 06:50 51°13.684 2°55.89 3.1 23 17.5 102190 34
2010-07-07 06:51 51°13.727 2°55.782 4.7 25 17.5 102190 36
2010-07-07 06:52 51°13.787 2°55.686 4 45 17.5 102190 36
2010-07-07 06:53 51°13.864 2°55.635 0.4 23 17.5 102190 33
2010-07-07 06:54 51°13.934 2°55.648 2 355 17.5 102190 34
2010-07-07 06:55 51°13.938 2°55.617 3.7 317 17.5 102190 34
2010-07-07 06:56 51°14.008 2°55.527 5.8 24 17.5 102190 35
2010-07-07 06:57 51°14.136 2°55.415 4.3 278 17.5 102190 35
2010-07-07 06:59 51°14.409 2°55.177 6.5 307 17.5 102180 36
2010-07-07 07:00 51°14.607 2°55.031 6.6 307 17.4 102170 37
2010-07-07 07:01 51°14.805 2°55.201 1.8 302 17.4 102200 37
2010-07-07 07:02 51°15.01 2°55.408 3.5 302 17.4 102190 39
2010-07-07 07:03 51°15.224 2°55.607 2 300 17.4 102190 37
2010-07-07 07:04 51°15.394 2°55.781 -999 55 17.4 102190 36
2010-07-07 07:05 51°15.484 2°55.889 2.6 303 17.4 102190 37
2010-07-07 07:06 51°15.557 2°55.926 3.8 308 17.4 102190 38
2010-07-07 07:07 51°15.624 2°55.942 3.4 307 17.4 102190 38
2010-07-07 07:08 51°15.68 2°55.988 3 58 17.4 102190 39
2010-07-07 07:09 51°15.716 2°56.07 2.5 59 17.4 102200 38
2010-07-07 07:10 51°15.753 2°56.147 1.8 54 17.4 102190 36
2010-07-07 07:11 51°15.788 2°56.217 3.2 54 17.4 102200 38
2010-07-07 07:12 51°15.82 2°56.286 0.3 61 17.4 102200 37
2010-07-07 07:13 51°15.853 2°56.352 3.6 54 17.6 102200 39
2010-07-07 07:14 51°15.887 2°56.421 2.8 51 17.5 102190 39
2010-07-07 07:15 51°15.916 2°56.498 0.7 53 17.6 102200 38
2010-07-07 07:16 51°15.939 2°56.58 2.5 45 17.6 102200 37
2010-07-07 07:17 51°15.96 2°56.661 1.2 52 17.5 102200 37
2010-07-07 07:18 51°15.982 2°56.739 3.1 53 17.5 102190 38
2010-07-07 07:19 51°16.004 2°56.813 0.7 58 17.5 102190 38
2010-07-07 07:20 51°16.026 2°56.886 3.9 54 17.6 102190 37
2010-07-07 07:21 51°16.047 2°56.956 2.8 59 17.6 102200 37
2010-07-07 07:22 51°16.067 2°57.025 3 53 17.5 102190 38
2010-07-07 07:23 51°16.085 2°57.096 2.5 60 17.4 102190 38
2010-07-07 07:24 51°16.103 2°57.171 3.1 58 17.3 102190 38
2010-07-07 07:25 51°16.123 2°57.247 2.3 59 17.3 102190 38
2010-07-07 07:26 51°16.148 2°57.32 -999 55 17.3 102190 37
2010-07-07 07:27 51°16.163 2°57.398 4 38 17.5 102190 39
2010-07-07 07:28 51°16.175 2°57.474 4 33 17.4 102190 39
2010-07-07 07:29 51°16.182 2°57.557 4 29 17.3 102190 38
2010-07-07 07:30 51°16.172 2°57.657 3.3 17 17.3 102190 39
2010-07-07 07:31 51°16.14 2°57.745 4.1 8 17.3 102190 38
2010-07-07 07:32 51°16.116 2°57.797 4.2 8 17.2 102190 38
2010-07-07 07:33 51°16.08 2°57.831 5.8 342 17.2 102180 39
2010-07-07 07:34 51°16.025 2°57.711 8.9 302 17.1 102170 38
2010-07-07 07:35 51°16.101 2°57.459 9.9 307 17.2 102170 38
2010-07-07 07:36 51°16.204 2°57.17 7.6 303 17.2 102160 37
2010-07-07 07:37 51°16.295 2°56.874 9 307 17.2 102160 40
2010-07-07 07:38 51°16.378 2°56.559 9.1 307 17.3 102160 39
2010-07-07 07:39 51°16.465 2°56.262 10.1 302 17.3 102160 40
2010-07-07 07:40 51°16.561 2°55.966 8.4 302 17.3 102150 41
2010-07-07 07:41 51°16.653 2°55.66 9.1 302 17.3 102150 39
2010-07-07 07:42 51°16.758 2°55.369 10.5 307 17.3 102160 38
2010-07-07 07:43 51°16.86 2°55.078 11.3 300 17.3 102140 39
2010-07-07 07:44 51°16.946 2°54.777 10.2 306 17.3 102150 35
2010-07-07 07:45 51°17.031 2°54.474 9.3 305 17.3 102150 38
2010-07-07 07:46 51°17.113 2°54.324 6 300 17.3 102150 37
2010-07-07 07:47 51°17.191 2°54.361 2.4 54 17.3 102170 38
2010-07-07 07:48 51°17.234 2°54.457 2.2 61 17.4 102170 38
2010-07-07 07:49 51°17.262 2°54.552 3.8 53 17.6 102170 40
2010-07-07 07:50 51°17.288 2°54.641 3.5 60 17.4 102180 37
2010-07-07 07:51 51°17.316 2°54.72 3.8 53 17.3 102180 37
2010-07-07 07:52 51°17.345 2°54.793 3.5 54 17.4 102180 36
2010-07-07 07:53 51°17.371 2°54.868 3.7 53 17.4 102170 38
2010-07-07 07:54 51°17.394 2°54.943 5.1 52 17.3 102180 40
2010-07-07 07:55 51°17.416 2°55.018 4.1 43 17.3 102180 38
2010-07-07 07:56 51°17.437 2°55.092 4 39 17.2 102180 37
2010-07-07 07:57 51°17.461 2°55.165 4 52 17.2 102180 37
2010-07-07 07:58 51°17.486 2°55.237 4.8 45 17.3 102180 39
2010-07-07 07:59 51°17.51 2°55.31 4.1 43 17.2 102180 36
2010-07-07 08:00 51°17.533 2°55.384 3.8 41 17.2 102180 36
2010-07-07 08:01 51°17.555 2°55.458 3.5 39 17.3 102180 38
2010-07-07 08:02 51°17.578 2°55.53 2.4 52 17.3 102180 39
2010-07-07 08:03 51°17.604 2°55.598 2.7 59 17.3 102180 39
2010-07-07 08:04 51°17.633 2°55.668 3.5 54 17.5 102180 37
2010-07-07 08:05 51°17.662 2°55.739 2.9 59 17.5 102180 38
2010-07-07 08:06 51°17.691 2°55.81 4.1 43 17.4 102190 39
2010-07-07 08:07 51°17.718 2°55.882 3.8 54 17.3 102180 37
2010-07-07 08:08 51°17.74 2°55.958 4.2 42 17.3 102180 34
2010-07-07 08:09 51°17.758 2°56.047 3.2 37 17.3 102180 36
2010-07-07 08:10 51°17.774 2°56.147 4.3 36 17.4 102180 37
2010-07-07 08:11 51°17.777 2°56.248 5 23 17.4 102180 36
2010-07-07 08:12 51°17.76 2°56.343 4.7 4 17.5 102180 38
2010-07-07 08:13 51°17.719 2°56.425 3.8 357 17.5 102170 39
2010-07-07 08:14 51°17.685 2°56.472 6 345 17.4 102170 38
2010-07-07 08:15 51°17.629 2°56.423 6.3 322 17.4 102170 39
2010-07-07 08:16 51°17.667 2°56.262 5.6 308 17.5 102160 37
2010-07-07 08:17 51°17.807 2°56.188 4.2 308 17.5 102170 39
2010-07-07 08:18 51°17.971 2°56.134 6 306 17.6 102180 39
2010-07-07 08:19 51°18.187 2°56.086 7 303 17.6 102170 38
2010-07-07 08:20 51°18.423 2°56.055 5.1 308 17.6 102170 37
2010-07-07 08:21 51°18.659 2°56.072 5.2 303 17.6 102170 38
2010-07-07 08:22 51°18.894 2°56.089 5.8 308 17.7 102170 38
2010-07-07 08:23 51°19.129 2°56.103 4.7 307 17.7 102170 39
2010-07-07 08:24 51°19.362 2°56.118 4.9 305 17.6 102170 36
2010-07-07 08:25 51°19.602 2°56.131 5.9 307 17.7 102170 38
2010-07-07 08:26 51°19.836 2°56.138 6.1 309 17.7 102160 38
2010-07-07 08:27 51°20.07 2°56.121 5.9 309 17.7 102160 37
2010-07-07 08:28 51°20.304 2°56.104 6.9 308 17.7 102170 40
2010-07-07 08:29 51°20.537 2°56.086 6.5 304 17.6 102160 38
2010-07-07 08:30 51°20.772 2°56.073 6.3 303 17.6 102160 39
2010-07-07 08:31 51°21.003 2°56.043 7 308 17.6 102150 40
2010-07-07 08:32 51°21.216 2°55.917 8 307 17.6 102140 37
2010-07-07 08:33 51°21.417 2°55.759 7.6 303 17.5 102150 38
2010-07-07 08:34 51°21.619 2°55.597 8.8 306 17.5 102150 39
2010-07-07 08:35 51°21.822 2°55.439 6.8 304 17.4 102140 38
2010-07-07 08:36 51°22.048 2°55.354 5.4 304 17.4 102150 39
2010-07-07 08:37 51°22.281 2°55.323 5.5 305 17.4 102160 38
2010-07-07 08:38 51°22.526 2°55.309 6.1 308 17.4 102150 39
2010-07-07 08:39 51°22.763 2°55.307 6.7 307 17.5 102150 39
2010-07-07 08:40 51°22.998 2°55.306 6.2 306 17.5 102150 39
2010-07-07 08:41 51°23.229 2°55.275 6 306 17.5 102150 41
2010-07-07 08:42 51°23.456 2°55.2 6.9 309 17.5 102150 41
2010-07-07 08:43 51°23.688 2°55.142 6.3 300 17.4 102150 40
2010-07-07 08:44 51°23.924 2°55.101 7.6 307 17.4 102150 41
2010-07-07 08:45 51°24.157 2°55.059 6.7 308 17.3 102150 39
2010-07-07 08:46 51°24.398 2°55.017 7.5 306 17.3 102150 40
2010-07-07 08:47 51°24.636 2°54.975 6.4 307 17.3 102150 40
2010-07-07 08:48 51°24.874 2°54.931 7.2 301 17.2 102150 38
2010-07-07 08:49 51°25.112 2°54.89 7.6 301 17.3 102160 40
2010-07-07 08:50 51°25.349 2°54.85 6 300 17.3 102140 40
2010-07-07 08:51 51°25.587 2°54.807 7.4 306 17.2 102150 40
2010-07-07 08:52 51°25.822 2°54.765 6.9 306 17.2 102150 40
2010-07-07 08:53 51°26.055 2°54.72 6.7 303 17.2 102150 40
2010-07-07 08:54 51°26.289 2°54.675 6.7 306 17.2 102160 40
2010-07-07 08:55 51°26.524 2°54.631 6.4 302 17.2 102160 40
2010-07-07 08:56 51°26.759 2°54.588 6.2 304 17.2 102160 39
2010-07-07 08:57 51°26.995 2°54.547 6.8 307 17.1 102150 39
2010-07-07 08:58 51°27.235 2°54.502 6.8 307 17.1 102150 39
2010-07-07 08:59 51°27.472 2°54.459 6.6 304 17.1 102150 40
2010-07-07 09:00 51°27.71 2°54.414 6.7 301 17.1 102150 40
2010-07-07 09:01 51°27.948 2°54.368 6.8 306 17.1 102150 39
2010-07-07 09:02 51°28.182 2°54.325 6.9 301 17.2 102150 40
2010-07-07 09:03 51°28.42 2°54.277 6.7 300 17.1 102150 41
2010-07-07 09:04 51°28.657 2°54.228 6.6 307 17.1 102140 40
2010-07-07 09:05 51°28.892 2°54.177 7 302 17.1 102150 40
2010-07-07 09:06 51°29.127 2°54.129 6 308 17.1 102150 40
2010-07-07 09:07 51°29.361 2°54.08 6.7 306 17.1 102150 40
2010-07-07 09:08 51°29.595 2°54.033 7.7 300 17.1 102150 40
2010-07-07 09:09 51°29.828 2°53.984 6.9 305 17.1 102150 40
2010-07-07 09:10 51°30.064 2°53.937 7.3 307 17.1 102140 41
2010-07-07 09:11 51°30.3 2°53.886 8 307 17 102140 39
2010-07-07 09:12 51°30.537 2°53.838 7.5 306 17 102150 39
2010-07-07 09:13 51°30.762 2°53.734 7.5 306 17 102140 39
2010-07-07 09:14 51°30.973 2°53.582 7.3 306 17 102140 39
2010-07-07 09:15 51°31.182 2°53.42 9.1 308 17 102140 39
2010-07-07 09:16 51°31.389 2°53.259 8.2 307 17 102130 40
2010-07-07 09:17 51°31.577 2°53.059 9.1 306 16.9 102130 39
2010-07-07 09:18 51°31.684 2°52.891 7.2 306 16.9 102140 40
2010-07-07 09:19 51°31.729 2°52.796 7 306 16.9 102140 40
2010-07-07 09:20 51°31.772 2°52.723 6.7 300 16.9 102140 38
2010-07-07 09:21 51°31.807 2°52.638 7.1 304 16.9 102140 40
2010-07-07 09:22 51°31.831 2°52.545 8.6 308 16.9 102140 41
2010-07-07 09:23 51°31.834 2°52.459 7.6 300 16.9 102140 42
2010-07-07 09:24 51°31.836 2°52.367 7.3 302 17 102140 41
2010-07-07 09:25 51°31.826 2°52.293 7.4 328 16.9 102140 39
2010-07-07 09:26 51°31.823 2°52.232 7.2 325 16.9 102140 40
2010-07-07 09:27 51°31.816 2°52.187 7.8 300 16.8 102140 39
2010-07-07 09:28 51°31.817 2°52.156 6.9 331 16.8 102140 37
2010-07-07 09:29 51°31.81 2°52.133 7.5 336 16.8 102140 39
2010-07-07 09:30 51°31.793 2°52.119 6.4 337 16.8 102140 40
2010-07-07 09:31 51°31.786 2°52.109 7.4 328 16.8 102150 40
2010-07-07 09:32 51°31.786 2°52.107 5.2 300 16.9 102150 40
2010-07-07 09:33 51°31.804 2°52.133 6.4 303 16.9 102150 40
2010-07-07 09:34 51°31.829 2°52.166 6.2 301 16.8 102150 40
2010-07-07 09:35 51°31.851 2°52.17 7.9 325 16.7 102140 40
2010-07-07 09:36 51°31.837 2°52.153 7.8 336 16.7 102140 38
2010-07-07 09:37 51°31.804 2°52.128 7.5 332 16.8 102140 40
2010-07-07 09:38 51°31.791 2°52.114 6.7 333 16.8 102140 41
2010-07-07 09:39 51°31.787 2°52.106 5.5 331 16.8 102150 40
2010-07-07 09:40 51°31.794 2°52.119 6.3 327 16.9 102150 42
2010-07-07 09:41 51°31.809 2°52.141 6 325 16.8 102150 40
2010-07-07 09:42 51°31.828 2°52.17 6.3 304 16.8 102150 40
2010-07-07 09:43 51°31.848 2°52.181 6.8 301 16.8 102140 39
2010-07-07 09:44 51°31.824 2°52.148 8.1 339 16.8 102140 39
2010-07-07 09:45 51°31.799 2°52.135 6.8 330 16.9 102140 40
2010-07-07 09:46 51°31.786 2°52.112 7.3 329 16.8 102140 40
2010-07-07 09:47 51°31.79 2°52.111 6.7 303 16.8 102140 40
2010-07-07 09:48 51°31.811 2°52.134 6.2 305 16.7 102140 39
2010-07-07 09:49 51°31.839 2°52.167 5.7 302 16.8 102150 40
2010-07-07 09:50 51°31.872 2°52.194 7.1 307 16.9 102150 40
2010-07-07 09:51 51°31.896 2°52.173 7.5 301 16.9 102130 40
2010-07-07 09:52 51°31.872 2°52.145 8.1 335 16.9 102140 40
2010-07-07 09:53 51°31.82 2°52.137 7.3 338 16.8 102130 40
2010-07-07 09:54 51°31.79 2°52.121 8.1 332 16.8 102140 40
2010-07-07 09:55 51°31.782 2°52.102 7.1 305 16.8 102140 40
2010-07-07 09:56 51°31.799 2°52.122 5.6 308 16.9 102140 40
2010-07-07 09:57 51°31.821 2°52.182 5.9 300 16.9 102150 40
2010-07-07 09:58 51°31.842 2°52.237 5.8 309 16.9 102150 41
2010-07-07 09:59 51°31.862 2°52.288 4.7 308 17 102130 41
2010-07-07 10:00 51°31.882 2°52.337 4.2 306 16.9 102150 39
2010-07-07 10:01 51°31.905 2°52.386 5 58 16.9 102140 40
2010-07-07 10:02 51°31.929 2°52.431 6.3 50 16.9 102140 39
2010-07-07 10:03 51°31.954 2°52.479 6 54 16.9 102130 41
2010-07-07 10:04 51°31.98 2°52.525 4.4 308 16.9 102140 40
2010-07-07 10:05 51°32.005 2°52.57 5.2 308 17 102140 41
2010-07-07 10:06 51°32.03 2°52.613 3.2 309 16.9 102140 41
2010-07-07 10:07 51°32.057 2°52.657 3.7 304 16.9 102140 39
2010-07-07 10:08 51°32.084 2°52.7 3.8 309 16.8 102140 38
2010-07-07 10:09 51°32.136 2°52.678 6.8 308 16.9 102140 40
2010-07-07 10:10 51°32.22 2°52.592 6.4 308 16.9 102130 40
2010-07-07 10:11 51°32.251 2°52.623 5.1 53 16.9 102140 40
2010-07-07 10:12 51°32.277 2°52.669 5.6 54 16.9 102140 39
2010-07-07 10:13 51°32.306 2°52.717 5.1 57 16.9 102140 40
2010-07-07 10:14 51°32.337 2°52.766 5.2 53 16.9 102150 40
2010-07-07 10:15 51°32.38 2°52.814 4.4 58 16.9 102140 40
2010-07-07 10:16 51°32.423 2°52.856 5.7 53 16.8 102140 38
2010-07-07 10:17 51°32.499 2°52.907 0.8 61 16.9 102140 39
2010-07-07 10:18 51°32.54 2°53.085 4.8 5 16.9 102140 39
2010-07-07 10:19 51°32.469 2°53.126 8.6 333 16.9 102130 40
2010-07-07 10:20 51°32.417 2°53.059 8.2 332 17 102130 41
2010-07-07 10:21 51°32.363 2°52.979 8.3 325 17 102140 40
2010-07-07 10:22 51°32.32 2°52.885 8.9 329 17 102140 40
2010-07-07 10:23 51°32.278 2°52.781 8.6 327 17 102140 39
2010-07-07 10:24 51°32.25 2°52.73 6 309 17 102140 38
2010-07-07 10:25 51°32.269 2°52.759 6.7 302 17.1 102140 40
2010-07-07 10:26 51°32.301 2°52.796 4 302 17.1 102150 39
2010-07-07 10:27 51°32.372 2°52.879 3.9 35 17.1 102150 39
2010-07-07 10:28 51°32.35 2°53.107 6.5 357 17.1 102140 40
2010-07-07 10:29 51°32.239 2°53.378 8.5 351 17 102130 39
2010-07-07 10:30 51°32.086 2°53.628 10.4 352 16.9 102140 39
2010-07-07 10:31 51°31.951 2°53.841 8.4 353 16.9 102130 40
2010-07-07 10:32 51°31.881 2°53.897 7.7 344 16.9 102140 38
2010-07-07 10:33 51°31.839 2°53.877 7.5 336 17 102150 40
2010-07-07 10:34 51°31.79 2°53.846 7 335 17.1 102150 40
2010-07-07 10:35 51°31.764 2°53.815 5.5 325 17.1 102150 39
2010-07-07 10:36 51°31.775 2°53.828 6.3 302 17.1 102140 39
2010-07-07 10:37 51°31.794 2°53.842 6.4 302 17.2 102140 39
2010-07-07 10:38 51°31.82 2°53.863 5.9 306 17.2 102150 39
2010-07-07 10:39 51°31.846 2°53.891 5.7 309 17.3 102160 40
2010-07-07 10:40 51°31.873 2°53.923 4.5 306 17.2 102160 39
2010-07-07 10:41 51°31.899 2°53.957 5.2 306 17.2 102160 40
2010-07-07 10:42 51°31.924 2°53.993 5 309 17.2 102150 38
2010-07-07 10:43 51°31.947 2°54.03 3.8 302 17.1 102160 38
2010-07-07 10:44 51°31.971 2°54.07 4.5 304 17.2 102150 39
2010-07-07 10:45 51°31.993 2°54.107 4.5 307 17.2 102150 39
2010-07-07 10:46 51°32.057 2°54.164 3.9 52 17.2 102150 39
2010-07-07 10:47 51°32.06 2°54.35 5.5 4 17.2 102140 39
2010-07-07 10:48 51°31.953 2°54.539 7.9 356 17.2 102120 39
2010-07-07 10:49 51°31.818 2°54.685 10.4 353 17.1 102110 40
2010-07-07 10:50 51°31.676 2°54.82 9.3 354 17.1 102110 38
2010-07-07 10:51 51°31.537 2°54.965 8.2 351 17.1 102110 39
2010-07-07 10:52 51°31.396 2°55.104 8.8 355 17.1 102110 39
2010-07-07 10:53 51°31.245 2°55.161 10.2 339 17.1 102110 38
2010-07-07 10:54 51°31.17 2°55.062 7.3 330 17.2 102120 38
2010-07-07 10:55 51°31.128 2°54.998 7 337 17.2 102130 39
2010-07-07 10:56 51°31.092 2°54.938 6.7 328 17.3 102130 38
2010-07-07 10:57 51°31.063 2°54.856 6.5 303 17.3 102130 39
2010-07-07 10:58 51°31.073 2°54.865 5.1 301 17.3 102130 40
2010-07-07 10:59 51°31.09 2°54.894 5.8 306 17.3 102130 39
2010-07-07 11:00 51°31.115 2°54.885 6.4 309 17.3 102120 38
2010-07-07 11:01 51°31.142 2°54.881 5.5 306 17.3 102120 39
2010-07-07 11:02 51°31.21 2°54.881 3.8 51 17.3 102120 39
2010-07-07 11:03 51°31.285 2°55.079 0.2 26 17.3 102120 39
2010-07-07 11:04 51°31.381 2°55.423 0.6 356 17.4 102120 37
2010-07-07 11:05 51°31.491 2°55.761 0.7 340 17.4 102130 38
2010-07-07 11:06 51°31.61 2°56.104 0.8 356 17.4 102130 40
2010-07-07 11:07 51°31.726 2°56.443 0.6 335 17.5 102120 39
2010-07-07 11:08 51°31.841 2°56.789 0.7 2 17.6 102120 40
2010-07-07 11:09 51°31.95 2°57.137 0.5 332 17.6 102120 39
2010-07-07 11:10 51°32.091 2°57.408 2.5 301 17.6 102120 39
2010-07-07 11:11 51°32.225 2°57.471 5.7 307 17.7 102120 39
2010-07-07 11:12 51°32.313 2°57.435 6.4 302 17.7 102110 38
2010-07-07 11:13 51°32.368 2°57.366 7.5 308 17.7 102110 40
2010-07-07 11:14 51°32.393 2°57.296 6.7 303 17.6 102100 38
2010-07-07 11:15 51°32.407 2°57.227 7 305 17.6 102100 38
2010-07-07 11:16 51°32.405 2°57.156 6.2 327 17.6 102100 39
2010-07-07 11:17 51°32.392 2°57.083 6.3 330 17.5 102100 39
2010-07-07 11:18 51°32.39 2°57.049 6.5 301 17.5 102100 40
2010-07-07 11:19 51°32.4 2°57.039 5 307 17.5 102100 40
2010-07-07 11:20 51°32.416 2°57.04 5.8 306 17.5 102100 39
2010-07-07 11:21 51°32.436 2°57.044 6.1 308 17.5 102100 39
2010-07-07 11:22 51°32.488 2°56.993 7.2 301 17.5 102110 40
2010-07-07 11:23 51°32.552 2°56.893 7.3 302 17.5 102100 40
2010-07-07 11:24 51°32.539 2°56.752 8.9 330 17.5 102090 39
2010-07-07 11:25 51°32.485 2°56.595 8.9 329 17.4 102090 39
2010-07-07 11:26 51°32.456 2°56.438 8.1 308 17.4 102090 40
2010-07-07 11:27 51°32.475 2°56.316 5.1 306 17.5 102090 40
2010-07-07 11:28 51°32.497 2°56.297 4.6 307 17.5 102100 40
2010-07-07 11:29 51°32.52 2°56.281 5.2 300 17.5 102100 40
2010-07-07 11:30 51°32.541 2°56.252 6.4 308 17.6 102110 40
2010-07-07 11:31 51°32.545 2°56.178 6.6 305 17.6 102100 41
2010-07-07 11:32 51°32.538 2°56.079 7 307 17.6 102100 40
2010-07-07 11:33 51°32.546 2°56.05 4.9 304 17.6 102100 39
2010-07-07 11:34 51°32.56 2°56.044 4.9 300 17.6 102100 41
2010-07-07 11:35 51°32.575 2°56.046 4 307 17.6 102100 40
2010-07-07 11:36 51°32.598 2°55.956 7 309 17.6 102100 41
2010-07-07 11:37 51°32.678 2°55.806 6.4 306 17.5 102100 41
2010-07-07 11:38 51°32.746 2°55.684 5.7 301 17.5 102100 40
2010-07-07 11:39 51°32.785 2°55.616 5.3 306 17.4 102100 40
2010-07-07 11:40 51°32.81 2°55.595 4.4 301 17.5 102110 40
2010-07-07 11:41 51°32.832 2°55.59 4.2 306 17.5 102100 40
2010-07-07 11:42 51°32.852 2°55.592 5 307 17.6 102110 40
2010-07-07 11:43 51°32.835 2°55.485 8.2 336 17.6 102100 40
2010-07-07 11:44 51°32.698 2°55.377 12 340 17.6 102090 40
2010-07-07 11:45 51°32.504 2°55.31 9.7 340 17.6 102090 40
2010-07-07 11:46 51°32.301 2°55.264 9.6 341 17.6 102090 39
2010-07-07 11:47 51°32.095 2°55.225 11.3 342 17.6 102080 41
2010-07-07 11:48 51°31.89 2°55.183 10.8 342 17.6 102080 40
2010-07-07 11:49 51°31.682 2°55.137 9 340 17.6 102080 41
2010-07-07 11:50 51°31.482 2°55.09 9.4 339 17.6 102070 41
2010-07-07 11:51 51°31.278 2°55.043 10.2 340 17.6 102070 41
2010-07-07 11:52 51°31.074 2°54.992 9.2 342 17.6 102080 39
2010-07-07 11:53 51°30.87 2°54.94 9.8 341 17.6 102070 40
2010-07-07 11:54 51°30.662 2°54.891 8.8 340 17.6 102080 41
2010-07-07 11:55 51°30.447 2°54.839 9.5 344 17.7 102070 41
2010-07-07 11:56 51°30.239 2°54.788 10.9 341 17.6 102080 41
2010-07-07 11:57 51°30.028 2°54.73 8.5 341 17.6 102080 40
2010-07-07 11:58 51°29.816 2°54.669 10.5 343 17.6 102070 40
2010-07-07 11:59 51°29.604 2°54.606 9.9 343 17.6 102070 40
2010-07-07 12:00 51°29.394 2°54.543 9.8 340 17.6 102070 39
2010-07-07 12:01 51°29.184 2°54.48 9.2 341 17.6 102080 41
2010-07-07 12:02 51°28.973 2°54.413 9.7 340 17.6 102080 41
2010-07-07 12:03 51°28.758 2°54.351 9.4 340 17.6 102070 41
2010-07-07 12:04 51°28.543 2°54.283 9.1 342 17.6 102080 41
2010-07-07 12:05 51°28.336 2°54.218 9.5 343 17.6 102080 41
2010-07-07 12:06 51°28.123 2°54.154 8.2 343 17.6 102080 41
2010-07-07 12:07 51°27.914 2°54.094 7.8 342 17.6 102080 42
2010-07-07 12:08 51°27.708 2°54.033 8.9 343 17.6 102080 40
2010-07-07 12:09 51°27.5 2°53.971 8.8 343 17.6 102080 41
2010-07-07 12:10 51°27.291 2°53.91 8.3 343 17.6 102080 40
2010-07-07 12:11 51°27.075 2°53.846 7.8 342 17.6 102070 41
2010-07-07 12:12 51°26.867 2°53.783 7.9 343 17.7 102080 41
2010-07-07 12:13 51°26.652 2°53.715 8.3 345 17.7 102080 40
2010-07-07 12:14 51°26.446 2°53.648 9.5 345 17.6 102080 41
2010-07-07 12:15 51°26.233 2°53.571 8.4 346 17.5 102080 42
2010-07-07 12:16 51°26.027 2°53.502 8.9 346 17.5 102080 41
2010-07-07 12:17 51°25.818 2°53.424 9.5 346 17.4 102080 41
2010-07-07 12:18 51°25.607 2°53.348 9.2 347 17.4 102080 42
2010-07-07 12:19 51°25.39 2°53.279 8.7 349 17.4 102080 42
2010-07-07 12:20 51°25.175 2°53.237 10.2 348 17.4 102080 41
2010-07-07 12:21 51°24.959 2°53.196 8.8 347 17.4 102070 41
2010-07-07 12:22 51°24.738 2°53.154 8.9 347 17.4 102070 42
2010-07-07 12:23 51°24.519 2°53.113 8 347 17.4 102070 41
2010-07-07 12:24 51°24.293 2°53.07 9.5 348 17.4 102070 40
2010-07-07 12:25 51°24.075 2°53.029 8.5 349 17.4 102080 41
2010-07-07 12:26 51°23.849 2°52.986 8.7 346 17.4 102080 41
2010-07-07 12:27 51°23.628 2°52.945 8.4 347 17.4 102080 41
2010-07-07 12:28 51°23.4 2°52.906 8.2 348 17.4 102080 41
2010-07-07 12:29 51°23.177 2°52.871 8 346 17.4 102080 42
2010-07-07 12:30 51°22.958 2°52.834 7.7 348 17.4 102080 41
2010-07-07 12:31 51°22.73 2°52.798 8.1 349 17.5 102080 42
2010-07-07 12:32 51°22.508 2°52.77 8.5 350 17.5 102080 41
2010-07-07 12:33 51°22.281 2°52.745 8.3 351 17.5 102080 42
2010-07-07 12:34 51°22.056 2°52.713 8.5 349 17.5 102080 41
2010-07-07 12:35 51°21.831 2°52.683 9 351 17.5 102080 41
2010-07-07 12:36 51°21.601 2°52.669 8.6 352 17.5 102070 42
2010-07-07 12:37 51°21.375 2°52.685 8.4 351 17.5 102070 41
2010-07-07 12:38 51°21.153 2°52.679 9.2 352 17.5 102080 41
2010-07-07 12:39 51°20.927 2°52.662 8.4 352 17.5 102070 41
2010-07-07 12:40 51°20.706 2°52.646 7.3 352 17.6 102070 41
2010-07-07 12:41 51°20.486 2°52.628 7.4 353 17.6 102080 41
2010-07-07 12:42 51°20.257 2°52.608 7.7 352 17.6 102070 42
2010-07-07 12:43 51°20.033 2°52.588 8.2 354 17.6 102070 41
2010-07-07 12:44 51°19.805 2°52.567 8 355 17.6 102070 41
2010-07-07 12:45 51°19.577 2°52.545 7.7 352 17.7 102070 41
2010-07-07 12:46 51°19.343 2°52.526 7.7 354 17.7 102070 42
2010-07-07 12:47 51°19.114 2°52.503 7.4 355 17.7 102060 42
2010-07-07 12:48 51°18.89 2°52.499 7.1 354 17.7 102070 41
2010-07-07 12:49 51°18.66 2°52.51 7.7 356 17.7 102060 42
2010-07-07 12:50 51°18.432 2°52.521 7.1 356 17.7 102060 42
2010-07-07 12:51 51°18.204 2°52.531 7.7 351 17.7 102060 42
2010-07-07 12:52 51°17.98 2°52.54 7.8 355 17.7 102050 41
2010-07-07 12:53 51°17.751 2°52.548 6.8 352 17.7 102050 41
2010-07-07 12:54 51°17.521 2°52.562 6.2 352 17.8 102060 42
2010-07-07 12:55 51°17.291 2°52.606 6.2 352 17.8 102060 41
2010-07-07 12:56 51°17.073 2°52.698 5.1 356 17.8 102060 40
2010-07-07 12:57 51°16.86 2°52.801 5.7 355 17.8 102060 42
2010-07-07 12:58 51°16.636 2°52.907 4.3 356 17.8 102060 41
2010-07-07 12:59 51°16.42 2°53.035 5.7 355 17.8 102050 41
2010-07-07 13:00 51°16.205 2°53.164 4.8 355 17.9 102060 42
2010-07-07 13:01 51°16.002 2°53.311 3.6 353 17.9 102060 41
2010-07-07 13:02 51°15.802 2°53.48 4 355 17.9 102060 41
2010-07-07 13:03 51°15.612 2°53.684 3.9 354 17.9 102060 41
2010-07-07 13:04 51°15.425 2°53.887 3.6 350 18 102060 41
2010-07-07 13:05 51°15.245 2°54.099 2.5 352 18 102060 42
2010-07-07 13:06 51°15.068 2°54.317 2.8 352 18.2 102060 43
2010-07-07 13:07 51°14.886 2°54.533 4.3 352 18.1 102060 41
2010-07-07 13:08 51°14.709 2°54.748 2.9 357 18.1 102060 41
2010-07-07 13:09 51°14.544 2°54.94 2.6 359 18.2 102060 41
2010-07-07 13:10 51°14.395 2°55.134 2.8 359 18.2 102070 41
2010-07-07 13:11 51°14.252 2°55.299 1.2 6 18.3 102070 42
2010-07-07 13:12 51°14.129 2°55.412 2.6 21 18.5 102060 42
2010-07-07 13:13 51°14.015 2°55.493 0.8 33 18.6 102060 42
2010-07-07 13:14 51°13.901 2°55.574 1.7 10 18.7 102060 42
2010-07-07 13:15 51°13.802 2°55.654 0.3 28 19 102060 41
2010-07-07 13:16 51°13.736 2°55.755 -999 19 19.3 102060 42
2010-07-07 13:17 51°13.69 2°55.87 0.2 59 19.6 102070 41